Location: Maccacari
(45.1333°N, 11.1333°E)
Time: 08:35:23
(UTC+00:00)

Nadezhda 4 Rocket - Pass Details

Date: 18 September 2020
Orbit: 949 x 992 km, 82.9° (Epoch: 29 October)

Event Time Altitude Azimuth Distance (km) Brightness Sun altitude
Rises 18:51:16 0° 353° (N) 3,638 7.4 -16.6°
Reaches altitude 10° 18:53:48 10° 356° (N) 2,686 6.6 -17.0°
Maximum altitude 18:59:54 67° 80° (E) 1,025 3.9 -18.0°
Enters shadow 19:04:42 17° 160° (SSE) 2,208 5.5 -18.8°
